Wetbulb
31.19 30.64 29.18 27.53 29.13 30.53 27.66 29.22 24.88 22.98 21.07 23.49 25.50 26.37 27.67 28.91 27.93 26.25 26.22 26.45 26.65 27.01 27.74 28.82 30.48 32.45 31.77 32.16 33.30 34.07 33.97 34.50 34.41 35.41 36.95 37.64 37.49 38.03 38.51 39.00 40.37 41.82 41.40 41.89
28.43 32.24 29.51 25.18 27.34 28.68 28.82 27.08 25.46 24.53 21.54 27.75 27.76 27.74 26.79 26.21 25.86 24.44 24.40 25.12 25.31 25.82 26.36 27.36 29.12 30.83 29.99 30.47 31.46 32.51 32.16 32.20 33.49 34.35 34.57 35.80 36.30 36.88 36.74 36.66 36.61 37.20 37.53 38.78
25.93 30.83 29.35 22.72 25.43 26.70 27.11 27.87 28.58 22.77 25.10 27.05 24.60 24.23 24.41 25.21 24.91 23.86 24.14 24.48 24.49 25.15 25.67 26.35 27.60 30.28 30.68 29.11 30.27 30.10 29.79 30.17 30.76 32.80 32.89 33.18 33.91 34.62 35.55 35.46 34.70 33.80 33.46 35.16
27.84 29.74 18.54 27.03 32.39 30.42 27.08 28.29 28.15 26.76 26.80 26.44 24.72 24.92 25.24 25.19 23.97 23.36 23.82 24.13 24.20 24.08 24.30 25.60 27.13 29.19 31.09 30.82 29.29 28.69 28.05 28.01 29.29 30.37 30.88 32.23 32.78 32.82 33.07 33.68 33.48 32.65 32.71 32.51
26.18 23.81 26.14 27.96 27.64 27.75 27.69 24.97 28.97 28.80 27.79 27.85 27.47 28.35 23.39 24.92 24.57 23.44 23.89 24.25 24.43 24.83 24.16 24.91 25.67 28.08 29.27 29.43 29.62 27.54 26.63 26.39 27.64 29.09 29.23 30.11 30.29 30.83 32.34 33.08 33.07 32.02 31.69 31.41
27.91 22.72 19.48 24.39 28.43 32.18 32.81 22.35 28.65 27.47 27.33 27.67 30.41 25.20 21.85 22.91 23.13 22.59 23.91 24.35 23.80 24.36 24.29 23.89 25.14 27.24 27.24 26.95 27.80 26.75 26.57 26.30 27.25 28.29 28.31 28.72 30.08 30.26 31.66 32.14 32.00 33.42 32.34 32.02
26.31 23.12 23.61 27.13 29.99 33.52 23.70 24.21 28.42 27.70 26.34 27.26 23.58 24.16 23.53 23.15 21.67 22.19 22.87 23.06 24.15 23.98 22.94 23.23 24.86 26.03 24.86 25.62 26.13 28.24 29.29 27.80 27.49 28.08 28.79 29.18 29.56 30.33 30.34 30.97 31.24 30.83 30.85 31.48
26.23 22.76 19.95 29.53 31.65 26.91 29.38 31.32 29.86 28.47 26.81 25.20 25.01 24.26 22.92 21.52 21.13 21.42 20.87 21.85 22.77 22.60 22.49 23.10 24.45 24.67 23.38 23.75 27.06 28.16 28.00 28.20 27.38 27.34 27.94 28.51 28.44 29.40 29.42 28.82 28.22 28.14 28.20 28.70
25.29 23.88 28.98 29.61 29.01 30.83 32.20 30.72 29.84 28.08 27.67 26.84 24.92 23.57 22.87 21.56 20.81 20.31 20.42 21.16 22.17 21.88 22.29 22.29 23.12 22.95 22.03 23.87 26.78 27.42 26.92 26.46 27.38 27.42 27.43 27.62 26.66 26.56 27.01 27.63 26.71 26.82 26.22 26.25
26.31 27.47 27.64 28.16 28.55 29.42 30.84 30.55 29.72 28.68 27.27 26.55 24.24 23.47 21.74 21.15 20.37 19.72 19.76 20.03 21.10 21.06 20.41 20.42 22.12 22.35 22.54 24.27 25.95 26.95 25.83 25.72 26.61 26.50 26.36 26.50 26.94 26.45 25.53 26.32 25.65 24.80 24.58 24.82
26.76 28.91 28.03 27.77 28.03 28.50 28.26 28.08 26.65 26.69 26.24 24.81 23.89 22.10 21.67 20.16 19.41 19.07 18.95 19.34 19.85 19.54 19.24 19.09 20.71 21.04 21.88 23.33 25.17 25.15 25.36 25.16 24.70 25.62 25.12 24.93 25.51 24.31 24.33 24.89 24.67 24.08 24.08 24.41
25.35 30.41 29.41 27.86 28.55 29.08 27.60 25.87 25.79 24.76 23.24 23.72 23.43 21.27 21.07 19.48 18.97 18.37 18.04 18.74 18.40 18.22 18.06 18.19 19.40 19.50 20.27 22.23 23.83 23.26 23.06 23.06 23.02 23.91 23.86 23.57 23.23 23.99 23.62 23.59 24.01 23.93 24.05 24.10
30.37 32.60 31.15 29.95 28.68 28.23 26.56 25.71 25.49 24.15 23.49 21.42 21.45 21.07 20.33 18.94 18.91 18.17 18.32 17.40 16.59 16.20 16.55 17.31 17.76 17.62 18.78 20.90 22.60 22.08 21.31 21.59 22.28 22.32 21.90 20.90 21.14 20.80 20.03 22.35 21.61 21.36 21.88 21.95
31.17 29.84 26.33 27.30 25.56 27.00 26.43 26.02 24.94 23.57 22.98 22.17 21.36 21.39 20.15 18.76 18.30 17.49 16.26 17.43 16.84 15.91 15.14 15.25 15.86 14.86 16.16 19.03 20.37 19.38 20.63 18.63 20.72 20.93 20.51 20.47 20.03 19.83 19.55 18.34 17.61 18.21 19.26 19.12
31.58 32.12 30.15 28.01 26.23 25.06 24.88 23.94 22.29 21.34 20.95 20.54 21.23 20.08 19.60 17.68 16.34 15.82 16.49 16.89 16.32 14.97 13.32 12.94 13.49 13.10 15.04 16.63 18.15 18.47 19.85 20.18 20.09 20.45 20.75 18.76 20.03 19.67 19.05 18.25 17.14 16.41 16.98 16.78
28.63 27.82 26.98 25.59 24.06 23.52 23.75 23.29 21.96 21.20 20.86 20.13 19.60 18.73 18.21 17.52 16.36 15.23 15.33 14.52 13.27 10.82 10.47 7.20 11.44 11.86 14.01 14.61 16.25 17.81 18.17 16.31 16.73 19.12 19.37 19.33 19.13 18.60 17.83 17.25 16.16 15.24 14.06 13.54
26.07 24.27 24.57 23.85 23.57 23.24 23.28 23.65 23.28 21.71 20.75 19.70 18.75 18.19 17.43 16.02 14.53 13.20 12.26 12.55 11.19 10.19 10.06 8.93 8.51 10.61 11.36 12.58 14.49 16.21 17.12 17.79 14.39 18.21 17.56 17.84 18.12 17.50 17.03 16.32 15.40 14.65 13.53 11.58
31.17 30.10 28.78 27.38 25.33 23.84 22.86 22.44 21.67 20.71 19.13 18.75 17.01 13.88 11.58 12.56 13.23 10.66 8.58 8.72 9.56 9.25 9.22 6.58 6.87 9.83 10.09 12.29 13.59 15.30 15.48 15.80 16.40 15.98 16.56 15.94 15.56 16.48 15.85 15.42 14.57 13.78 13.82 12.95
29.69 28.13 27.48 26.84 26.32 24.64 22.76 20.75 19.90 18.26 14.70 11.28 9.53 9.53 8.85 7.63 9.57 8.68 5.21 5.36 6.55 9.75 10.71 7.27 11.36 10.87 12.04 12.99 13.89 14.76 14.24 13.81 14.30 14.31 14.68 13.47 14.57 14.00 14.30 15.05 14.22 13.27 12.61 12.35
26.31 26.64 25.76 24.42 24.05 22.66 19.91 18.89 16.34 13.80 11.24 8.01 4.25 4.95 8.05 5.71 2.81 3.16 3.39 10.48 11.79 13.36 8.91 9.52 10.14 12.30 12.47 11.80 10.54 13.63 12.74 12.55 12.27 12.59 12.67 12.53 12.95 12.99 12.73 11.42 11.87 12.38 12.01 11.87
23.73 22.90 21.13 20.00 17.05 15.88 14.74 13.71 11.27 8.53 4.16 4.06 7.80 7.95 8.42 7.48 2.87 2.05 7.93 14.01 13.17 8.22 10.88 9.98 11.98 13.05 13.56 11.32 12.74 12.86 12.10 11.85 11.45 10.90 10.49 10.29 10.84 11.28 11.68 11.53 11.48 11.12 11.11 11.33
19.80 18.09 15.36 13.27 12.98 9.20 9.30 10.52 9.91 5.65 4.26 2.55 -0.48 2.05 3.54 8.88 5.10 5.13 6.15 12.75 15.65 7.19 12.27 14.49 14.42 8.10 10.36 7.04 12.82 12.23 11.40 11.02 10.93 10.89 10.54 10.31 10.17 9.86 10.12 10.06 9.95 10.36 10.23 9.96
17.05 16.40 13.86 12.24 12.34 11.64 6.57 8.15 6.15 6.99 4.30 4.38 5.64 6.95 9.46 15.26 15.73 14.53 14.96 14.37 14.16 12.69 13.74 14.98 9.87 6.22 4.71 11.11 12.53 11.61 11.09 9.93 9.88 9.84 9.57 8.99 8.92 9.00 8.91 8.94 9.39 9.52 9.25 8.89
14.45 14.70 13.27 11.57 10.20 10.64 10.13 8.45 7.73 8.74 6.67 7.98 7.94 6.99 11.31 13.01 14.74 15.07 16.70 12.53 8.25 10.16 13.72 14.18 11.50 6.88 2.03 12.19 11.64 11.32 10.79 11.43 10.33 10.21 9.75 3.83 8.51 7.93 8.77 8.71 8.44 9.73 8.64 7.96
14.83 12.65 11.13 10.74 12.63 14.03 13.76 11.86 10.84 11.58 11.91 14.24 14.91 15.43 11.82 14.23 14.56 18.15 16.86 16.06 11.08 10.62 15.75 11.07 6.36 5.22 11.15 12.13 11.68 10.68 10.90 10.98 10.83 9.94 9.42 8.99 8.78 8.46 8.73 8.63 7.78 9.13 8.46 7.75
14.89 15.72 15.19 15.11 17.33 16.45 16.17 14.80 15.39 16.14 16.21 16.75 17.45 18.00 18.05 16.41 16.37 15.45 16.21 14.52 14.53 12.20 14.65 15.40 12.79 11.51 11.72 11.31 11.42 10.82 10.61 10.80 10.51 10.30 8.21 9.63 10.08 9.20 9.22 8.62 8.29 8.57 8.58 7.92
16.40 15.00 15.42 15.52 16.86 16.87 17.07 17.18 17.50 18.05 17.00 18.79 18.87 18.48 16.54 15.94 15.81 13.39 12.23 15.62 14.70 13.65 13.30 13.02 12.05 10.10 11.67 11.77 11.46 12.00 11.70 11.44 9.20 9.62 9.80 9.87 9.47 9.61 9.28 8.74 8.15 8.45 8.29 7.27
MSLP
1017.26 1017.48 1017.39 1016.53 1015.30 1015.00 1015.34 1016.21 1017.43 1019.99 1021.42 1022.77 1023.38 1023.69 1023.79 1023.87 1023.71 1023.16 1022.81 1022.33 1021.80 1021.11 1020.78 1020.20 1019.51 1019.14 1018.37 1017.36 1016.48 1016.12 1015.42 1014.85 1014.52 1014.21 1013.50 1012.78 1012.08 1011.36 1010.85 1010.00 1009.60 1008.95 1008.24 1007.64
1017.15 1017.39 1017.61 1017.64 1017.53 1017.23 1017.52 1018.19 1019.57 1020.84 1022.34 1023.77 1024.45 1024.69 1024.54 1024.49 1024.36 1024.30 1024.20 1023.98 1023.75 1023.24 1022.83 1022.09 1021.12 1020.21 1019.62 1018.65 1018.14 1017.48 1016.71 1016.41 1015.96 1015.40 1014.76 1014.11 1013.41 1012.53 1012.19 1011.42 1010.97 1010.27 1009.86 1009.51
1016.88 1017.25 1017.65 1018.51 1019.49 1019.12 1019.09 1019.66 1020.24 1021.43 1023.11 1024.25 1024.87 1025.22 1025.44 1025.49 1025.54 1025.37 1025.29 1025.43 1025.25 1024.97 1024.49 1023.78 1022.73 1021.68 1020.71 1020.23 1019.63 1018.30 1017.88 1017.57 1017.10 1016.49 1015.85 1015.34 1014.89 1014.22 1013.39 1013.02 1012.61 1011.99 1011.73 1010.64
1016.66 1017.08 1018.21 1019.84 1020.38 1020.49 1020.56 1021.24 1021.88 1022.60 1023.57 1024.47 1025.17 1025.94 1026.47 1026.80 1026.78 1026.69 1026.48 1026.19 1025.89 1025.65 1025.09 1024.46 1023.67 1022.46 1021.60 1020.64 1020.25 1020.00 1019.49 1019.05 1018.53 1017.85 1017.23 1016.61 1016.10 1015.56 1014.99 1014.40 1013.92 1013.48 1012.99 1012.54
1016.76 1017.58 1019.09 1019.95 1020.76 1020.99 1020.93 1022.07 1022.65 1022.99 1023.80 1024.45 1025.19 1025.43 1026.82 1027.54 1027.70 1027.73 1027.32 1026.99 1026.75 1026.49 1026.11 1025.38 1024.40 1023.47 1022.55 1021.95 1021.76 1021.52 1020.87 1020.38 1019.87 1019.21 1018.55 1017.88 1017.33 1016.96 1016.44 1015.94 1015.55 1015.06 1014.51 1013.69
1017.13 1017.87 1019.26 1020.59 1021.17 1021.25 1021.21 1022.27 1023.22 1023.61 1023.91 1024.34 1024.69 1025.61 1027.59 1028.38 1028.51 1028.48 1028.04 1027.59 1027.31 1026.90 1026.72 1026.02 1025.33 1024.51 1023.83 1023.29 1022.72 1022.06 1021.96 1021.65 1021.14 1020.40 1019.85 1019.32 1018.76 1018.34 1017.98 1017.22 1016.76 1016.19 1015.75 1015.24
1017.98 1018.82 1020.30 1021.33 1021.50 1021.43 1021.95 1023.56 1023.74 1024.25 1024.58 1024.71 1025.56 1027.14 1028.29 1028.90 1029.02 1028.95 1028.56 1028.12 1027.92 1027.71 1027.47 1026.88 1026.12 1025.53 1024.83 1024.36 1024.12 1023.81 1023.17 1022.61 1021.87 1021.35 1020.87 1020.46 1019.75 1019.23 1018.98 1018.34 1017.61 1017.08 1016.68 1016.27
1019.33 1020.12 1021.41 1021.97 1021.82 1022.15 1023.12 1023.56 1024.17 1024.87 1025.49 1025.96 1026.81 1027.80 1028.61 1029.19 1029.41 1029.29 1029.16 1028.96 1028.77 1028.53 1028.04 1027.78 1027.24 1026.73 1026.13 1025.63 1025.24 1024.64 1024.07 1023.30 1022.77 1022.71 1022.27 1021.85 1021.30 1020.66 1020.16 1019.58 1018.89 1018.17 1017.82 1017.28
1020.61 1021.40 1022.34 1022.91 1022.98 1023.33 1023.63 1024.27 1024.99 1025.43 1026.05 1026.68 1027.53 1028.39 1029.09 1029.55 1029.81 1029.83 1029.69 1029.86 1029.73 1029.01 1028.83 1028.38 1028.14 1027.68 1027.21 1026.96 1025.87 1025.20 1024.54 1024.21 1024.07 1023.54 1023.12 1022.94 1022.29 1021.69 1021.05 1020.62 1020.24 1019.69 1019.16 1018.74
1021.23 1022.31 1022.89 1023.52 1024.02 1024.26 1024.55 1025.02 1025.64 1026.23 1026.84 1027.40 1028.06 1028.96 1029.60 1030.03 1030.33 1030.55 1030.63 1030.43 1030.05 1029.71 1029.50 1029.65 1029.33 1028.87 1028.48 1027.69 1026.99 1025.86 1025.47 1025.32 1024.62 1024.33 1024.05 1023.68 1023.31 1022.90 1022.52 1022.00 1021.49 1021.21 1020.60 1020.19
1021.65 1022.43 1023.33 1024.01 1024.43 1024.90 1025.33 1025.79 1026.43 1027.13 1027.62 1028.20 1028.82 1029.60 1030.12 1030.56 1030.91 1031.29 1031.30 1031.14 1031.04 1030.75 1030.53 1030.44 1029.93 1029.51 1029.23 1028.61 1027.62 1026.60 1026.71 1026.12 1025.75 1025.46 1025.00 1024.49 1024.39 1024.27 1023.72 1023.54 1023.07 1022.54 1022.16 1021.72
1021.13 1021.71 1022.61 1023.61 1024.48 1024.98 1025.50 1026.23 1026.83 1027.36 1028.11 1028.75 1029.16 1029.87 1030.53 1031.02 1031.43 1031.58 1031.59 1031.71 1031.57 1031.35 1031.18 1031.00 1030.71 1030.27 1029.91 1029.28 1028.41 1027.92 1027.42 1027.08 1026.87 1026.38 1026.12 1025.78 1025.35 1024.81 1024.82 1024.44 1024.02 1023.69 1023.33 1022.76
1021.42 1021.99 1022.79 1023.79 1024.77 1025.29 1025.81 1026.57 1027.24 1027.72 1028.27 1028.90 1029.58 1030.02 1030.57 1031.07 1031.53 1031.87 1031.97 1032.03 1031.89 1031.84 1031.70 1031.47 1031.15 1030.86 1030.74 1030.27 1029.53 1028.95 1028.49 1028.15 1027.69 1027.31 1026.93 1026.61 1026.15 1025.74 1025.22 1024.78 1024.61 1024.41 1024.06 1023.79
1021.92 1022.56 1023.87 1024.45 1025.08 1025.85 1026.37 1027.09 1027.78 1028.33 1028.86 1029.40 1029.92 1030.55 1031.13 1031.59 1032.05 1032.30 1032.49 1032.48 1032.57 1032.65 1032.57 1032.46 1032.30 1032.13 1031.86 1031.17 1030.45 1029.95 1029.41 1029.13 1028.65 1028.33 1028.00 1027.58 1027.18 1026.75 1026.38 1025.82 1025.24 1024.99 1024.88 1024.74
1022.46 1022.72 1023.09 1024.41 1025.54 1026.39 1027.06 1027.65 1028.30 1028.95 1029.57 1030.08 1030.63 1031.10 1031.57 1032.05 1032.58 1033.03 1033.24 1033.17 1033.15 1033.26 1033.38 1033.29 1033.09 1032.93 1032.56 1032.00 1031.26 1030.69 1030.06 1029.62 1029.34 1028.95 1028.63 1028.41 1027.91 1027.51 1027.16 1026.70 1026.34 1026.05 1025.75 1025.45
1022.82 1023.34 1024.04 1024.69 1025.76 1026.71 1027.37 1028.03 1028.67 1029.41 1030.04 1030.72 1031.30 1031.82 1032.40 1032.92 1033.36 1033.86 1034.05 1033.98 1033.86 1034.09 1034.23 1034.21 1034.05 1033.91 1033.42 1032.76 1031.99 1031.25 1030.74 1030.44 1029.97 1029.47 1029.08 1028.69 1028.43 1028.06 1027.73 1027.42 1027.14 1026.94 1026.85 1026.74
1022.79 1023.87 1024.50 1025.25 1025.94 1026.68 1027.30 1028.12 1028.91 1029.77 1030.61 1031.33 1031.92 1032.62 1033.18 1033.48 1034.08 1034.48 1034.56 1034.59 1034.73 1034.81 1034.87 1034.86 1034.77 1034.42 1033.87 1033.28 1032.49 1031.79 1031.19 1030.69 1030.49 1029.93 1029.66 1029.34 1028.94 1028.64 1028.39 1028.13 1027.90 1027.74 1027.84 1027.95
1022.33 1023.13 1024.04 1024.71 1025.67 1026.72 1027.77 1028.62 1029.46 1030.32 1031.14 1031.86 1032.74 1033.34 1033.82 1034.25 1034.61 1034.87 1035.14 1035.24 1035.13 1035.11 1035.15 1035.24 1035.07 1034.58 1034.12 1033.54 1032.95 1032.26 1031.73 1031.27 1030.82 1030.51 1030.16 1029.91 1029.63 1029.26 1029.02 1028.72 1028.52 1028.36 1028.25 1028.30
1023.05 1023.71 1024.51 1025.27 1026.11 1027.08 1028.15 1029.14 1030.10 1030.96 1031.88 1032.60 1033.43 1034.08 1034.60 1034.95 1035.13 1035.30 1035.44 1035.48 1035.37 1035.18 1035.24 1035.21 1034.69 1034.45 1034.02 1033.58 1033.00 1032.49 1032.19 1031.82 1031.34 1030.99 1030.70 1030.43 1030.09 1029.89 1029.57 1029.22 1029.01 1029.00 1028.92 1028.72
1023.93 1024.59 1025.33 1026.15 1026.89 1027.80 1028.94 1030.00 1030.89 1031.65 1032.44 1033.39 1034.33 1034.91 1035.05 1035.23 1035.33 1035.40 1035.44 1035.21 1035.05 1035.01 1035.16 1034.92 1034.61 1034.15 1033.91 1033.68 1033.55 1032.70 1032.50 1032.17 1031.83 1031.52 1031.28 1030.93 1030.62 1030.30 1030.12 1029.92 1029.72 1029.45 1029.37 1029.21
1024.69 1025.50 1026.30 1027.11 1028.11 1029.00 1029.70 1030.58 1031.31 1032.37 1033.45 1034.12 1034.49 1034.68 1034.82 1035.00 1035.14 1035.22 1035.22 1034.67 1034.60 1034.83 1034.63 1034.59 1034.23 1033.83 1033.56 1033.66 1033.13 1032.90 1032.73 1032.48 1032.22 1031.96 1031.71 1031.42 1031.09 1030.77 1030.45 1030.26 1030.04 1029.88 1029.67 1029.47
1025.58 1026.39 1027.24 1028.04 1028.88 1029.91 1030.71 1031.16 1031.86 1032.88 1033.75 1034.28 1034.51 1034.62 1034.82 1034.72 1034.75 1034.77 1034.69 1034.34 1034.12 1034.59 1033.93 1033.66 1033.53 1034.02 1033.71 1034.02 1033.11 1032.95 1032.75 1032.56 1032.35 1032.14 1031.85 1031.66 1031.39 1031.09 1030.80 1030.57 1030.33 1030.11 1029.95 1029.80
1026.27 1027.03 1027.87 1028.64 1029.30 1030.13 1031.17 1031.67 1032.22 1032.77 1033.41 1033.77 1033.96 1034.15 1034.17 1033.87 1033.78 1033.68 1033.50 1033.61 1033.75 1033.70 1033.61 1033.12 1033.51 1033.83 1033.91 1033.35 1032.98 1032.82 1032.65 1032.50 1032.34 1032.20 1032.03 1031.85 1031.59 1031.31 1031.03 1030.73 1030.46 1030.27 1030.08 1029.91
1026.84 1027.61 1028.35 1029.21 1029.84 1030.53 1031.21 1031.78 1032.25 1032.57 1032.79 1033.05 1033.23 1033.32 1033.36 1033.29 1033.02 1032.95 1032.88 1033.08 1033.10 1033.00 1032.92 1032.70 1032.93 1033.32 1033.77 1032.77 1032.61 1032.46 1032.32 1032.18 1032.10 1031.96 1031.77 1031.69 1031.42 1031.19 1030.87 1030.63 1030.41 1030.18 1030.06 1029.83
1027.09 1027.88 1028.68 1029.26 1029.67 1030.14 1030.64 1031.34 1031.92 1032.21 1032.33 1032.31 1032.16 1032.23 1032.44 1032.42 1032.43 1031.96 1032.21 1032.33 1032.35 1032.35 1032.21 1032.40 1032.89 1033.00 1032.50 1032.23 1032.10 1031.93 1031.79 1031.73 1031.78 1031.71 1031.36 1031.13 1030.90 1030.69 1030.49 1030.31 1030.16 1030.11 1029.95 1029.66
1027.13 1027.62 1028.17 1028.65 1028.92 1029.49 1030.03 1030.63 1030.92 1031.22 1031.45 1031.42 1031.37 1031.44 1031.55 1031.70 1031.69 1031.73 1031.73 1031.77 1031.86 1031.81 1031.72 1031.54 1031.84 1031.97 1031.87 1031.70 1031.66 1031.39 1031.23 1031.05 1030.97 1030.95 1030.81 1030.46 1030.23 1030.11 1029.90 1029.77 1029.65 1029.43 1029.29 1029.23
1027.19 1027.63 1028.19 1028.71 1028.98 1029.31 1029.68 1029.98 1030.30 1030.49 1030.74 1030.78 1030.77 1030.95 1031.14 1031.28 1031.29 1031.30 1031.30 1031.32 1031.35 1031.38 1031.37 1031.36 1031.48 1031.54 1031.33 1031.20 1031.00 1030.70 1030.54 1030.35 1030.35 1030.15 1030.02 1029.84 1029.71 1029.46 1029.30 1029.18 1029.09 1028.91 1028.83 1028.81
Wind_Speed
8 11 16 15 17 12 7 4 4 6 6 8 11 12 13 11 13 18 20 21 21 20 18 18 16 17 18 18 18 17 18 18 18 16 16 16 17 17 16 17 16 15 15 15
2 5 9 16 17 9 13 15 13 11 8 7 7 8 11 14 15 17 18 18 18 19 19 18 18 17 19 19 18 17 19 19 18 18 17 18 17 18 17 18 17 17 18 16
0 5 4 5 10 12 14 14 5 5 5 6 8 11 14 12 14 15 16 15 15 15 15 15 16 15 17 18 17 19 19 18 19 18 18 18 17 17 19 18 16 17 17 17
2 4 3 3 4 11 15 11 9 9 7 8 11 11 11 13 13 13 14 14 14 13 14 15 15 16 15 17 19 19 19 18 18 17 17 17 18 17 16 15 17 16 17 17
2 3 4 5 4 3 4 7 9 4 8 10 10 7 12 12 11 11 12 11 12 12 12 14 15 16 15 16 16 17 17 17 17 17 17 17 17 16 15 14 14 13 13 17
3 3 4 4 6 5 5 4 7 4 1 1 7 1 3 9 10 10 11 11 12 13 13 14 14 15 16 16 16 19 16 16 16 16 16 16 15 15 13 11 12 11 13 15
3 3 3 6 9 3 3 3 6 6 7 4 6 5 6 6 9 10 9 13 12 13 13 15 16 15 17 17 15 14 14 13 15 16 15 15 15 14 14 13 12 14 14 14
1 1 3 9 1 1 6 8 7 7 9 13 12 9 8 8 9 11 12 12 13 11 13 14 15 13 15 16 14 14 14 15 15 14 13 12 14 13 14 15 15 15 15 14
2 3 3 4 8 6 5 9 6 8 8 10 9 8 7 8 10 11 12 10 10 11 12 14 15 15 15 15 15 14 15 15 14 14 13 12 13 14 12 13 12 12 11 11
4 4 5 6 7 6 7 10 10 10 9 9 10 8 8 7 7 8 8 9 10 11 13 13 13 13 13 14 14 14 15 14 13 13 13 12 10 10 11 11 11 11 12 11
4 8 6 3 6 9 11 12 13 11 10 11 11 9 8 7 7 7 7 8 9 9 10 12 12 13 14 14 14 13 12 12 13 11 12 11 10 10 10 11 12 11 10 10
3 9 3 5 8 8 10 9 9 11 11 10 10 10 9 8 7 7 7 8 8 10 10 11 11 12 13 14 14 13 11 10 10 9 9 9 8 7 14 15 19 21 20 14
2 6 5 11 8 5 9 8 9 10 10 10 9 9 9 8 7 8 8 9 10 11 11 11 12 13 13 13 12 12 11 11 9 9 8 9 8 8 8 9 14 19 22 22
12 13 8 9 5 7 11 11 12 11 9 9 9 8 7 6 6 7 7 7 8 9 10 10 10 11 12 12 11 11 9 10 7 7 7 7 7 7 7 8 9 9 14 17
5 2 8 11 13 11 10 11 10 8 8 8 6 6 6 6 6 6 6 6 7 8 9 9 10 11 12 11 10 10 8 8 7 7 6 5 6 6 6 7 8 8 8 11
8 10 12 14 13 12 11 9 9 8 7 7 6 6 6 6 6 4 4 6 5 6 7 6 7 8 9 9 9 7 7 9 7 6 6 6 6 6 7 7 7 8 8 9
13 9 10 11 12 13 11 8 7 8 8 7 7 7 7 6 5 4 4 4 4 4 5 5 6 7 7 8 8 6 6 7 8 6 6 6 5 6 6 6 6 6 6 7
5 8 10 12 13 12 10 9 9 9 8 8 6 5 4 4 3 3 2 3 2 3 5 5 5 5 6 7 7 6 6 7 7 7 6 6 6 5 5 5 5 6 5 6
7 10 10 11 11 11 10 9 9 8 7 7 6 4 4 3 3 2 1 0 1 2 3 4 6 5 6 7 7 6 6 7 7 6 6 7 6 5 5 6 5 5 5 5
9 9 10 11 10 10 10 8 10 8 7 6 5 5 5 3 3 3 3 3 3 1 2 4 4 4 4 5 6 5 6 6 7 6 6 6 7 6 5 6 6 5 5 4
9 9 9 9 7 6 7 8 9 8 6 5 6 5 4 2 3 3 3 3 3 4 4 4 2 3 3 4 4 5 5 5 5 5 5 5 6 7 6 6 6 5 5 5
7 8 8 8 8 7 5 6 7 7 7 6 4 4 4 4 4 5 6 5 2 4 2 2 2 1 3 4 3 4 5 4 4 4 5 5 5 6 6 6 6 6 5 5
7 8 8 9 9 10 7 6 5 7 7 6 6 6 6 3 3 4 3 5 4 4 3 3 2 3 3 3 3 3 4 4 4 4 4 4 4 5 5 6 6 5 5 5
7 7 7 7 9 9 9 6 6 6 5 5 6 5 5 4 4 6 6 4 5 4 4 3 3 4 4 3 4 4 4 4 4 4 4 4 4 4 5 5 5 5 5 5
7 8 8 9 9 6 6 8 6 5 6 7 6 6 8 6 6 3 4 4 4 4 4 4 5 4 3 4 4 4 4 4 5 4 5 5 5 5 5 5 5 5 5 5
10 8 8 9 6 6 6 7 6 5 5 5 4 4 3 3 5 5 5 6 5 4 5 4 3 3 3 4 5 5 5 6 5 5 5 6 6 6 5 5 5 5 5 5
6 7 6 5 4 6 6 6 5 5 5 4 3 2 2 1 2 3 3 4 4 4 4 4 4 4 4 4 5 6 6 6 6 5 5 5 5 6 6 5 5 5 5 4
Wind_Direction
118 82 31 20 41 66 79 60 64 98 84 36 27 20 10 32 25 23 21 19 16 16 13 11 9 17 18 20 19 19 26 25 20 12 13 16 17 17 15 22 19 18 19 20
225 200 82 31 25 59 84 88 98 107 87 61 52 33 28 31 23 29 24 20 16 15 11 6 8 11 18 21 19 21 28 24 18 17 15 15 14 20 19 24 21 23 21 20
76 304 225 42 14 40 65 46 44 69 89 115 71 51 31 27 25 24 21 20 17 13 13 9 6 8 26 21 17 25 25 21 17 17 17 15 14 16 21 23 22 29 23 19
212 261 62 116 90 79 70 61 81 101 123 126 108 80 49 33 27 22 20 18 15 8 9 12 9 12 16 25 24 23 24 22 16 16 16 16 17 17 17 19 23 23 24 21
153 57 111 137 38 338 12 62 32 71 166 169 164 132 55 29 30 25 22 23 21 16 13 15 15 17 24 24 26 22 22 21 17 17 17 17 18 12 13 19 19 22 23 23
168 154 201 67 340 318 292 87 40 23 46 270 203 70 37 23 25 25 28 29 21 20 17 23 15 20 27 27 23 25 19 18 18 23 23 18 17 15 9 17 20 19 26 27
37 98 109 6 320 291 263 91 87 64 49 81 86 66 95 51 37 28 29 27 25 27 27 24 20 22 26 24 20 15 17 19 24 20 22 19 21 23 16 15 21 24 23 23
200 129 179 0 181 308 97 99 107 96 95 97 107 104 80 54 41 35 30 25 25 28 30 25 25 21 30 24 17 19 21 22 24 23 23 22 24 22 26 22 23 24 20 19
13 96 82 24 80 78 128 131 127 123 115 111 106 95 84 67 46 34 31 26 24 31 29 27 22 24 25 14 15 20 25 25 24 25 28 22 25 26 26 26 24 22 22 17
176 136 114 111 87 87 103 115 117 123 126 122 114 105 90 73 56 47 38 33 28 32 33 27 21 26 24 14 11 23 26 21 20 21 18 25 29 30 31 26 27 25 21 16
81 123 113 108 125 125 116 116 112 108 115 120 120 107 104 87 70 59 52 39 36 35 33 26 20 23 21 15 17 20 22 22 19 16 16 18 29 27 33 36 33 26 23 21
203 165 139 156 158 140 122 117 120 119 105 92 102 106 104 90 78 65 53 42 41 38 33 24 21 22 18 14 16 19 23 19 18 15 12 12 12 21 44 40 37 38 30 30
164 117 94 122 123 117 113 114 107 101 100 101 89 92 85 83 69 59 52 44 36 29 23 19 20 19 12 8 12 20 22 16 12 14 13 13 14 16 13 25 37 35 31 23
116 111 97 148 153 130 116 108 97 94 92 94 98 94 97 91 78 60 49 45 49 34 28 20 19 16 0 359 8 11 12 19 13 10 8 12 14 17 16 18 17 17 23 23
128 31 136 121 124 122 119 122 114 114 115 105 102 110 110 105 91 68 43 46 45 39 28 18 16 8 356 355 2 9 12 12 3 6 13 7 13 21 19 22 22 21 15 22
116 118 132 139 139 141 143 144 141 142 137 135 133 124 114 110 99 83 65 42 47 35 20 14 13 351 346 351 357 9 9 10 8 10 9 11 12 14 16 19 23 25 24 16
131 143 144 149 157 161 164 159 158 158 153 154 140 139 144 128 126 122 72 44 74 47 27 16 346 341 346 357 0 8 6 8 4 11 12 5 7 14 11 17 21 28 31 22
148 159 170 166 164 162 158 154 152 154 152 142 135 128 122 161 162 140 89 1 63 60 28 355 322 347 354 358 6 10 9 5 6 10 5 9 3 10 10 13 18 20 21 31
139 147 151 157 162 155 151 148 148 139 132 124 125 145 154 158 166 162 213 247 48 4 22 329 345 3 10 3 11 13 11 7 7 10 4 6 10 8 2 3 9 15 10 14
125 130 133 134 137 145 144 143 139 127 115 121 127 157 175 189 197 205 200 248 260 297 299 303 326 2 359 9 4 14 8 5 5 7 12 4 5 3 359 2 360 3 359 0
137 133 130 129 118 110 122 138 132 133 146 159 173 180 192 181 209 201 217 253 188 212 239 254 307 359 5 354 358 9 4 1 7 1 1 358 351 355 353 355 354 356 351 347
139 135 131 129 131 123 131 131 123 131 157 169 178 165 186 214 194 225 243 254 197 208 249 269 272 322 339 327 350 351 356 349 343 341 344 347 347 345 343 339 337 340 343 340
135 136 136 144 150 145 141 148 151 157 168 184 183 190 210 224 214 221 239 190 228 213 240 257 284 273 268 287 305 311 317 324 322 320 322 318 317 323 324 322 322 325 330 332
136 142 138 129 125 140 158 175 175 183 191 192 207 199 208 223 240 227 246 219 237 233 243 260 263 267 269 283 286 289 289 294 295 296 299 293 294 296 301 309 305 309 304 307
141 132 137 145 160 176 161 161 174 196 203 218 220 217 220 227 233 270 227 229 239 233 260 244 252 272 277 284 282 281 283 285 284 286 289 288 286 285 289 292 287 293 295 294
159 165 168 177 175 166 165 168 192 196 206 222 233 234 232 239 247 250 249 244 248 248 257 272 266 274 277 285 285 283 285 286 279 273 273 278 281 279 279 282 283 282 279 276
147 148 156 166 175 176 180 181 186 207 214 226 244 209 230 250 274 267 258 257 253 262 267 271 270 261 277 292 296 299 295 285 271 274 276 278 278 277 276 277 274 273 275 271